Weather History for KEKN - February, 2014

Change the Weather History Date:

Tuesday, February 18, 2014

  Actual Average Record
Temperature  
Mean Temperature 36 °F 33 °F  
Max Temperature 49 °F 44 °F 68 °F (1938)
Min Temperature 23 °F 22 °F -13 °F (1973)
Degree Days  
Heating Degree Days 29 32  
Month to date heating degree days 669 609  
Since 1 July heating degree days 4172 4010  
Cooling Degree Days 0 0  
Month to date cooling degree days 0 0  
Year to date cooling degree days 0 0  
Moisture  
Dew Point 23 °F    
Average Humidity 55    
Maximum Humidity 82    
Minimum Humidity 28    
Precipitation  
Precipitation 0.03 in 0.11 in 2.48 in (2000)
Month to date precipitation 3.13 1.95  
Year to date precipitation 5.28 5.18  
Snow  
Snow 0.10 in - - ()
Month to date snowfall 29.1  
Since 1 September snowfall 68.3  
Snow Depth 10.00 in    
Sea Level Pressure  
Sea Level Pressure 30.05 in    
Wind  
Wind Speed 10 mph (SW)    
Max Wind Speed 29 mph    
Max Gust Speed 40 mph    
Visibility 9 miles    
Events Snow    
T = Trace of Precipitation, MM = Missing Value Source: NWS Daily Summary

Daily Weather History Graph

Daily Weather History Graph

Search for Another Location

Airport or City:

Trip Planner

Search our weather history database for the weather conditions in past years. The results will help you decide how hot, cold, wet, or windy it might be!

Date:

Astronomy

Feb. 18, 2014 Rise Set
Actual Time 7:06 AM EST 6:00 PM EST
Civil Twilight 6:39 AM EST 6:27 PM EST
Nautical Twilight 6:08 AM EST 6:58 PM EST
Astronomical Twilight 5:37 AM EST 7:29 PM EST
Moon 9:49 PM EST (2/18) 8:40 AM EST (2/18)
Length of Visible Light 11h 47m
Length of Day
10h 53m
Waning Gibbous, 87% of the Moon is Illuminated
Feb 18
Waning Gibbous
Feb 22
Last Quarter
Mar 1
New
Mar 8
First Quarter
Mar 16
Full

Hourly Weather History & Observations

Time (EST) Temp. Windchill Dew Point Humidity Pressure Visibility Wind Dir Wind Speed Gust Speed Precip Events Conditions
12:51 AM 36.0 °F 28.0 °F 24.1 °F 62% 29.96 in 9.0 mi SSW 11.5 mph 18.4 mph 0.00 in Snow Light Snow
1:02 AM 35.1 °F 25.9 °F 26.1 °F 70% 29.91 in 4.0 mi SSW 13.8 mph 23.0 mph 0.00 in Snow Light Snow
1:07 AM 34.0 °F 25.0 °F 27.0 °F 75% 29.92 in 1.8 mi SSW 12.7 mph 23.0 mph 0.00 in Snow Light Snow
1:14 AM 33.1 °F 23.9 °F 28.0 °F 82% 29.93 in 2.0 mi SSW 12.7 mph 23.0 mph 0.01 in Snow Light Snow
1:21 AM 34.0 °F 23.0 °F 28.0 °F 79% 29.94 in 4.0 mi SSW 18.4 mph 26.5 mph 0.01 in Snow Light Snow
1:28 AM 33.1 °F 22.2 °F 28.0 °F 82% 29.95 in 3.0 mi SSW 17.3 mph 26.5 mph 0.02 in Snow Light Snow
1:51 AM 33.1 °F 22.6 °F 28.0 °F 82% 30.01 in 9.0 mi South 16.1 mph 24.2 mph 0.03 in   Overcast
2:51 AM 32.0 °F 23.6 °F 27.0 °F 82% 30.00 in 10.0 mi South 10.4 mph - N/A   Clear
3:51 AM 37.0 °F 29.3 °F 26.1 °F 65% 30.00 in 10.0 mi SSW 11.5 mph - N/A   Scattered Clouds
4:51 AM 37.9 °F 28.9 °F 25.0 °F 60% 30.02 in 10.0 mi WSW 16.1 mph 29.9 mph N/A   Overcast
5:51 AM 37.0 °F 26.7 °F 24.1 °F 59% 30.03 in 10.0 mi WSW 19.6 mph 38.0 mph N/A   Partly Cloudy
6:51 AM 37.0 °F 25.6 °F 23.0 °F 57% 30.04 in 10.0 mi SW 24.2 mph 29.9 mph N/A   Scattered Clouds
7:51 AM 37.0 °F 28.1 °F 23.0 °F 57% 30.05 in 10.0 mi SW 15.0 mph 27.6 mph N/A   Clear
8:51 AM 39.0 °F 28.8 °F 23.0 °F 53% 30.09 in 10.0 mi WSW 21.9 mph 34.5 mph N/A   Mostly Cloudy
9:51 AM 39.0 °F 29.9 °F 24.1 °F 55% 30.12 in 10.0 mi West 17.3 mph 35.7 mph N/A   Scattered Clouds
10:51 AM 41.0 °F 33.9 °F 24.1 °F 51% 30.14 in 10.0 mi West 12.7 mph 26.5 mph N/A   Clear
11:51 AM 42.1 °F 33.3 °F 21.0 °F 43% 30.15 in 10.0 mi West 19.6 mph 25.3 mph N/A   Clear
12:51 PM 44.1 °F 38.6 °F 21.0 °F 40% 30.14 in 10.0 mi WSW 10.4 mph 17.3 mph N/A   Clear
1:51 PM 46.0 °F 42.5 °F 19.0 °F 34% 30.14 in 10.0 mi WSW 6.9 mph - N/A   Clear
2:51 PM 46.9 °F - 18.0 °F 32% 30.14 in 10.0 mi WSW 11.5 mph - N/A   Clear
3:51 PM 48.0 °F - 18.0 °F 30% 30.11 in 10.0 mi West 3.5 mph - N/A   Clear
4:51 PM 46.9 °F - 16.0 °F 29% 30.11 in 10.0 mi West 4.6 mph - N/A   Clear
5:51 PM 39.0 °F - 21.0 °F 49% 30.11 in 10.0 mi Calm Calm - N/A   Clear
6:51 PM 33.1 °F - 23.0 °F 66% 30.12 in 10.0 mi Calm Calm - N/A   Clear
7:51 PM 32.0 °F - 23.0 °F 69% 30.09 in 10.0 mi Calm Calm - N/A   Clear
8:51 PM 28.9 °F - 23.0 °F 78% 30.08 in 10.0 mi Calm Calm - N/A   Clear
9:51 PM 28.0 °F - 21.9 °F 78% 30.06 in 10.0 mi Calm Calm - N/A   Clear
10:51 PM 26.1 °F - 21.0 °F 81% 30.06 in 10.0 mi Calm Calm - N/A   Clear
11:51 PM 23.0 °F - 19.9 °F 88% 30.05 in 10.0 mi Calm Calm - N/A   Clear